Location: Mary A Oil Field
(38.5606°N, 98.9545°W)
Time: 05:40:43
(UTC+00:00)

Cosmos 2219 - Pass Details

Date: 20 January 2020
Orbit: 833 x 861 km, 71.1° (Epoch: 24 February)

Event Time Altitude Azimuth Distance (km) Brightness Sun altitude
Rises 01:21:22 0° 214° (SW) 3,364 7.0 -19.1°
Reaches altitude 10° 01:23:51 10° 219° (SW) 2,434 6.3 -19.6°
Maximum altitude 01:29:17 54° 296° (WNW) 1,009 3.8 -20.6°
Enters shadow 01:34:44 10° 13° (NNE) 2,433 5.4 -21.6°
